Location: Allens Landing
(37.8284°N, 89.7284°W)
Time: 17:43:49
(UTC+00:00)

Vanguard 2 Rocket - All Passes

Search period start: 13 November 2024 00:00
Search period end: 23 November 2024 00:00
Orbit: 553 x 3297 km, 32.9° (Epoch: 12 November)

Date Brightness Start Highest point End Pass type
(mag) Time Alt. Az. Time Alt. Az. Time Alt. Az.
13 Nov - 11:20:08 10° SSW 11:31:43 37° SE 11:47:58 10° E visible
13 Nov - 13:31:28 10° WSW 13:47:09 66° SSE 14:07:07 10° E daylight
13 Nov - 15:46:16 10° W 16:05:13 76° S 16:24:01 10° ESE daylight
13 Nov - 18:03:23 10° W 18:22:56 59° SSW 18:38:16 10° SE daylight
13 Nov - 20:23:22 10° W 20:37:38 28° SW 20:48:21 10° S daylight
14 Nov - 10:18:33 10° S 10:27:35 24° SE 10:39:56 10° E visible
14 Nov - 12:27:52 10° SW 12:41:29 57° SSE 13:00:40 10° E daylight
14 Nov - 14:41:20 10° WSW 14:58:41 75° S 15:18:36 10° E daylight
14 Nov - 16:57:21 10° W 17:16:56 68° SSW 17:34:15 10° ESE daylight
14 Nov - 19:15:43 10° W 19:33:06 40° SW 19:46:20 10° SSE daylight
14 Nov - 21:43:14 10° WSW 21:46:04 11° SW 21:48:44 10° SW daylight
15 Nov - 09:19:14 10° SSE 09:24:02 13° SE 09:29:44 10° ESE visible
15 Nov - 11:24:56 10° SSW 11:36:31 45° SE 11:53:42 10° E visible
15 Nov - 13:36:59 10° WSW 13:52:24 71° SSE 14:12:37 10° E daylight
15 Nov - 15:51:53 10° W 16:10:33 73° S 16:29:31 10° ESE daylight
15 Nov - 18:08:59 10° W 18:27:53 51° SSW 18:43:19 10° SE daylight
15 Nov - 20:30:12 10° W 20:42:10 21° SW 20:51:52 10° S daylight
16 Nov - 10:22:49 10° SSW 10:32:15 32° SE 10:46:11 10° E visible
16 Nov - 12:33:14 10° WSW 12:46:37 64° SSE 13:06:07 10° E daylight
16 Nov - 14:46:59 10° W 15:04:03 76° S 15:24:06 10° E daylight
16 Nov - 17:02:57 10° W 17:22:03 61° SSW 17:39:29 10° SE daylight
16 Nov - 19:21:45 10° W 19:37:45 32° SW 19:50:37 10° SSE daylight
17 Nov - 09:21:54 10° S 09:28:38 19° SE 09:37:42 10° E visible
17 Nov - 11:30:05 10° SW 11:41:29 53° SSE 11:59:13 10° E visible
17 Nov - 13:42:37 10° WSW 13:57:45 74° S 14:18:03 10° E daylight
17 Nov - 15:57:32 10° W 16:15:48 69° SSW 16:34:51 10° ESE daylight
17 Nov - 18:14:42 10° W 18:32:40 43° SW 18:48:00 10° SSE daylight
17 Nov - 20:38:33 10° WSW 20:46:40 14° SW 20:53:50 10° SSW daylight
18 Nov - 10:27:35 10° SSW 10:37:05 39° SE 10:51:58 10° E visible
18 Nov - 12:38:47 10° WSW 12:51:53 69° SSE 13:11:31 10° E daylight
18 Nov - 14:52:40 10° W 15:09:24 74° S 15:29:29 10° ESE daylight
18 Nov - 17:08:35 10° W 17:27:01 54° SSW 17:44:24 10° SE daylight
18 Nov - 19:28:20 10° W 19:42:17 24° SW 19:54:11 10° S daylight
19 Nov - 09:25:55 10° S 09:33:21 26° SE 09:44:16 10° E visible
19 Nov - 11:35:29 10° SW 11:46:38 60° SSE 12:04:37 10° E visible
19 Nov - 13:48:19 10° W 14:03:08 75° S 14:23:25 10° E daylight
19 Nov - 16:03:12 10° W 16:20:56 63° SSW 16:39:57 10° SE daylight
19 Nov - 18:20:42 10° W 18:37:20 35° SW 18:52:11 10° SSE daylight
20 Nov - 08:26:01 10° SSE 08:30:09 14° SE 08:35:14 10° ESE visible
20 Nov - 10:32:43 10° SW 10:42:05 47° SSE 10:57:31 10° E visible
20 Nov - 12:44:27 10° WSW 12:57:15 73° S 13:16:51 10° E daylight
20 Nov - 14:58:22 10° W 15:14:41 69° SSW 15:34:41 10° ESE daylight
20 Nov - 17:14:22 10° W 17:31:51 45° SSW 17:48:57 10° SSE daylight
20 Nov - 19:35:59 10° W 19:46:47 17° SW 19:56:34 10° SSW daylight
21 Nov - 09:30:36 10° SSW 09:38:11 33° SE 09:50:13 10° E visible
21 Nov - 11:41:03 10° WSW 11:51:55 66° SSE 12:09:57 10° E visible
21 Nov - 13:54:03 10° W 14:08:31 73° S 14:28:42 10° ESE daylight
21 Nov - 16:08:54 10° W 16:25:58 55° SSW 16:44:45 10° SE daylight
21 Nov - 18:27:10 10° W 18:41:56 27° SW 18:55:43 10° S daylight
22 Nov - 08:29:28 10° S 08:34:55 20° SE 08:42:29 10° E visible
22 Nov - 10:38:07 10° SW 10:47:15 55° SSE 11:02:54 10° E visible
22 Nov - 12:50:12 10° W 13:02:41 74° S 13:22:08 10° E daylight
22 Nov - 15:04:05 10° W 15:19:53 63° SSW 15:39:40 10° SE daylight
22 Nov - 17:20:22 10° W 17:36:37 37° SW 17:53:01 10° SSE daylight
22 Nov - 19:47:06 10° WSW 19:51:21 11° SW 19:55:28 10° SW daylight
